Location: Bremen
(53.0796°N, 8.8241°E)
Time: 11:35:33
(UTC+01:00)

ISS - Pass Details

Date: 08 January 2018
Orbit: 402 x 407 km, 51.6° (Epoch: 22 January)

Event Time Altitude Azimuth Distance (km) Brightness Sun altitude
Exits shadow 06:38:40 39° 249° (WSW) 623 -3.3 -16.5°
Maximum altitude 06:39:35 57° 193° (SSW) 486 -3.5 -16.4°
Drops below altitude 10° 06:42:49 10° 113° (ESE) 1,469 0.3 -15.9°
Sets 06:44:55 0° 110° (ESE) 2,329 1.9 -15.6°
